Dare County Gunnery Range, NC

10:01 AM EDT on May 24, 2018 (GMT -0400)
Dare County Gunnery Range

Weather History for K2DP - January, 2014

Change the Weather History Date:

Monday, January 13, 2014

  Actual Average (KMQI) Record (KMQI)
Temperature  
Mean Temperature 47 °F -  
Max Temperature 62 °F 47 °F 71 °F (2005)
Min Temperature 32 °F 35 °F 21 °F (1977)
Degree Days  
Heating Degree Days 18    
Moisture  
Dew Point 36 °F    
Average Humidity 88    
Maximum Humidity 100    
Minimum Humidity 43    
Precipitation  
Precipitation 0.00 in - - ()
Sea Level Pressure  
Sea Level Pressure 30.19 in    
Wind  
Wind Speed 3 mph (SSW)    
Max Wind Speed 14 mph    
Max Gust Speed 20 mph    
Visibility 7 miles    
Events Fog    
Averages and records for this station are not official NWS values.
T = Trace of Precipitation, MM = Missing Value Source: NWS Daily Summary

Daily Weather History Graph

Daily Weather History Graph

Search for Another Location

Airport or City:

Astronomy

Jan. 13, 2014 Rise Set
Actual Time 7:13 AM EST 5:11 PM EST
Civil Twilight 6:45 AM EST 5:39 PM EST
Nautical Twilight 6:13 AM EST 6:11 PM EST
Astronomical Twilight 5:43 AM EST 6:41 PM EST
Moon 3:24 PM EST (1/13) 5:00 AM EST (1/13)
Length of Visible Light 10h 54m
Length of Day
9h 58m
Waxing Gibbous, 95% of the Moon is Illuminated
Jan 13
Waxing Gibbous
Jan 15
Full
Jan 24
Last Quarter
Jan 30
New
Feb 6
First Quarter

Hourly Weather History & Observations

Time (EST) Temp. Windchill Dew Point Humidity Pressure Visibility Wind Dir Wind Speed Gust Speed Precip Events Conditions
12:56 AM 35.4 °F 32.6 °F 34.7 °F 97% 30.20 in 12.0 mi SSW 3.5 mph - N/A   Clear
1:02 AM 35.6 °F 32.8 °F 35.6 °F 100% 30.20 in 4.0 mi SSW 3.5 mph - N/A   Clear
1:07 AM 35.6 °F - 33.8 °F 93% 30.20 in 2.0 mi SSW 2.3 mph - N/A   Clear
1:19 AM 35.6 °F - 33.8 °F 93% 30.20 in 4.0 mi SW 1.2 mph - N/A   Clear
1:31 AM 33.8 °F - 33.8 °F 100% 30.20 in 6.0 mi Calm Calm - N/A   Clear
1:48 AM 33.8 °F - 33.8 °F 100% 30.20 in 2.5 mi SSW 2.3 mph - N/A   Clear
1:54 AM 33.8 °F 30.8 °F 33.8 °F 100% 30.20 in 3.0 mi SSW 3.5 mph - N/A   Clear
1:56 AM 34.3 °F 31.4 °F 34.2 °F 99% 30.20 in 3.0 mi SSW 3.5 mph - N/A   Clear
2:07 AM 33.8 °F 28.6 °F 33.8 °F 100% 30.21 in 12.0 mi South 5.8 mph - N/A   Clear
2:56 AM 34.7 °F 31.8 °F 34.0 °F 97% 30.21 in 12.0 mi South 3.5 mph - N/A   Clear
3:56 AM 32.9 °F - 32.9 °F 100% 30.21 in 5.0 mi SW 2.3 mph - N/A   Clear
4:56 AM 33.6 °F - 33.4 °F 99% 30.21 in 12.0 mi SSW 2.3 mph - N/A   Clear
5:02 AM 33.8 °F - 32.0 °F 93% 30.21 in 4.0 mi SSW 2.3 mph - N/A   Clear
5:07 AM 33.8 °F - 33.8 °F 100% 30.21 in 6.0 mi SW 2.3 mph - N/A   Clear
5:37 AM 33.8 °F - 32.0 °F 93% 30.21 in 1.6 mi Variable 1.2 mph - N/A   Clear
5:48 AM 33.8 °F - 33.8 °F 100% 30.21 in 1.8 mi Calm Calm - N/A   Clear
5:56 AM 32.5 °F - 32.0 °F 98% 30.21 in 1.2 mi West 2.3 mph - N/A   Partly Cloudy
6:01 AM 32.0 °F - 32.0 °F 100% 30.22 in 3.0 mi NW 1.2 mph - N/A   Partly Cloudy
6:13 AM 32.0 °F - 32.0 °F 100% 30.22 in 2.5 mi West 1.2 mph - N/A   Clear
6:19 AM 32.0 °F - 32.0 °F 100% 30.23 in 4.0 mi Calm Calm - N/A   Clear
6:24 AM 32.0 °F - 32.0 °F 100% 30.22 in 6.0 mi Calm Calm - N/A   Clear
6:30 AM 32.0 °F - 32.0 °F 100% 30.23 in 1.4 mi Calm Calm - N/A   Clear
6:42 AM 32.0 °F - 32.0 °F 100% 30.23 in 12.0 mi WNW 1.2 mph - N/A   Clear
6:54 AM 32.0 °F - 32.0 °F 100% 30.23 in 1.2 mi SSW 1.2 mph - N/A   Clear
6:56 AM 32.4 °F - 32.4 °F 100% 30.24 in 1.1 mi SW 1.2 mph - N/A   Clear
7:02 AM 32.0 °F - 32.0 °F 100% 30.24 in 0.5 mi Calm Calm - N/A   Clear
7:37 AM 33.8 °F - 33.8 °F 100% 30.24 in 6.0 mi ENE 2.3 mph - N/A Fog Patches of Fog
7:43 AM 33.8 °F - 33.8 °F 100% 30.24 in 1.1 mi ESE 1.2 mph - N/A Fog Patches of Fog
7:48 AM 33.8 °F - 33.8 °F 100% 30.24 in 0.9 mi SSE 1.2 mph - N/A   Partly Cloudy
7:54 AM 33.8 °F - 33.8 °F 100% 30.24 in 3.0 mi Calm Calm - N/A   Clear
7:56 AM 34.2 °F - 34.0 °F 99% 30.24 in 6.0 mi Calm Calm - N/A   Clear
8:56 AM 44.4 °F - 41.4 °F 89% 30.26 in 12.0 mi SSW 2.3 mph - N/A   Clear
9:56 AM 53.8 °F - 37.9 °F 55% 30.26 in 12.0 mi SSW 4.6 mph - N/A   Clear
10:56 AM 58.8 °F - 36.1 °F 43% 30.23 in 12.0 mi SSW 6.9 mph - N/A   Clear
11:56 AM 60.6 °F - 39.0 °F 45% 30.18 in 12.0 mi SW 13.8 mph 19.6 mph N/A   Clear
12:56 PM 62.6 °F - 41.5 °F 46% 30.14 in 12.0 mi WSW 9.2 mph - N/A   Clear
1:56 PM 61.5 °F - 42.6 °F 50% 30.12 in 12.0 mi SSE 10.4 mph - N/A   Clear
2:56 PM 60.1 °F - 42.4 °F 52% 30.11 in 12.0 mi South 10.4 mph - N/A   Clear
3:56 PM 55.0 °F - 41.5 °F 60% 30.11 in 12.0 mi South 8.1 mph - N/A   Clear
4:56 PM 51.3 °F - 41.0 °F 68% 30.10 in 12.0 mi South 6.9 mph - N/A   Partly Cloudy
5:56 PM 47.8 °F - 42.3 °F 81% 30.09 in 12.0 mi South 5.8 mph - N/A   Scattered Clouds
6:56 PM 49.6 °F - 44.1 °F 81% 30.08 in 12.0 mi South 4.6 mph - N/A   Mostly Cloudy
7:56 PM 50.4 °F - 45.7 °F 84% 30.07 in 12.0 mi South 4.6 mph - N/A   Mostly Cloudy
8:56 PM 50.2 °F - 46.0 °F 86% 30.08 in 12.0 mi WSW 4.6 mph - N/A   Mostly Cloudy
9:56 PM 57.9 °F - 45.3 °F 63% 30.07 in 12.0 mi WSW 6.9 mph - N/A   Mostly Cloudy
10:56 PM 52.7 °F - 46.4 °F 79% 30.06 in 12.0 mi SE 4.6 mph - N/A   Mostly Cloudy
11:56 PM 50.5 °F - 46.0 °F 85% 30.03 in 12.0 mi SE 3.5 mph - N/A   Partly Cloudy